User: anonymous   Login
Location: Caltech
(34.1382°N, 118.1253°W)
Time: 06:55:21
(UTC-08:00)
Language:

Cosmos 1833 Rocket - Orbit

View from above orbital plane
View from above orbital plane
View from above satellite
View from above satellite

Ground track
Ground track

The orbit data is extracted from the following two-line orbital elements,

1 17590U 87027B   17346.90386049 -.00000188 +00000-0 -70143-4 0  9994
2 17590 071.0017 133.6404 0004354 003.2408 356.8743 14.16750743589202
Epoch (UTC): 12 December 2017 21:41:33
Eccentricity: 0.0004354
inclination: 71.0017°
perigee height: 833 km
apogee height: 839 km
right ascension of ascending node: 133.6404°
argument of perigee: 3.2408°
revolutions per day: 14.16750743
mean anomaly at epoch: 356.8743°
orbit number at epoch: 58920

The dashed part of the orbit path shows where the satellite is in the earth's shadow,  

DLR